Weather History for Broomfield, CO

Change the Weather History Date:

Saturday, June 29, 2013

  Actual Average Record
Temperature  
Mean Temperature 72 °F -  
Max Temperature 82 °F 84 °F 101 °F (1990)
Min Temperature 62 °F 59 °F 50 °F (1985)
Cooling Degree Days 7    
Growing Degree Days 22 (Base 50)    
Moisture  
Dew Point 51 °F    
Average Humidity 53    
Maximum Humidity 72    
Minimum Humidity 28    
Precipitation  
Precipitation 0.00 in - - ()
Sea Level Pressure  
Sea Level Pressure 30.27 in    
Wind  
Wind Speed 10 mph (NW)    
Max Wind Speed 15 mph    
Max Gust Speed 17 mph    
Visibility 10 miles    
Events      
Averages and records for this station are not official NWS values.
T = Trace of Precipitation, MM = Missing Value Source: NWS Daily Summary

Daily Weather History Graph

Daily Weather History Graph

Search for Another Location

Airport:

Trip Planner

Search our weather history database for the weather conditions in past years. The results will help you decide how hot, cold, wet, or windy it might be!

Date:

Astronomy

Jun. 29, 2013 Rise Set
Actual Time 5:34 AM MDT 8:32 PM MDT
Civil Twilight 5:02 AM MDT 9:05 PM MDT
Nautical Twilight 4:20 AM MDT 9:46 PM MDT
Astronomical Twilight 3:32 AM MDT 10:34 PM MDT
Moon 12:03 AM MDT (6/29) 12:48 PM MDT (6/29)
Length of Visible Light 16h 03m
Length of Day
14h 58m
Waning Gibbous, 55% of the Moon is Illuminated
Jun 29
Waning Gibbous
Jun 29
Last Quarter
Jul 8
New
Jul 15
First Quarter
Jul 22
Full

Hourly Weather History & Observations

Time (MDT) Temp. Dew Point Humidity Pressure Visibility Wind Dir Wind Speed Gust Speed Precip Events Conditions
12:16 AM 68.0 °F 51.8 °F 56% 30.32 in 10.0 mi SW 15.0 mph - N/A   Clear
12:36 AM 68.0 °F 51.8 °F 56% 30.32 in 10.0 mi SSW 13.8 mph - N/A   Clear
12:56 AM 68.0 °F 51.8 °F 56% 30.31 in 10.0 mi SSW 13.8 mph - N/A   Clear
1:15 AM 69.8 °F 51.8 °F 53% 30.32 in 10.0 mi SSW 11.5 mph - N/A   Clear
1:36 AM 68.0 °F 51.8 °F 56% 30.31 in 10.0 mi South 12.7 mph - N/A   Clear
1:55 AM 68.0 °F 50.0 °F 52% 30.30 in 10.0 mi South 8.1 mph - N/A   Clear
2:16 AM 66.2 °F 50.0 °F 56% 30.29 in 10.0 mi SSE 5.8 mph - N/A   Clear
2:36 AM 66.2 °F 50.0 °F 56% 30.28 in 10.0 mi SE 4.6 mph - N/A   Clear
2:56 AM 64.4 °F 50.0 °F 59% 30.28 in 10.0 mi Calm Calm - N/A   Clear
3:16 AM 64.4 °F 51.8 °F 64% 30.28 in 10.0 mi NW 11.5 mph - N/A   Clear
3:36 AM 62.6 °F 51.8 °F 68% 30.28 in 10.0 mi NNW 11.5 mph - N/A   Clear
3:56 AM 62.6 °F 53.6 °F 72% 30.28 in 10.0 mi NNW 11.5 mph - N/A   Clear
4:16 AM 62.6 °F 53.6 °F 72% 30.28 in 10.0 mi NNW 10.4 mph - N/A   Clear
4:36 AM 62.6 °F 53.6 °F 72% 30.28 in 10.0 mi NNW 10.4 mph - N/A   Clear
4:56 AM 62.6 °F 51.8 °F 68% 30.29 in 10.0 mi NNW 11.5 mph - N/A   Clear
5:16 AM 62.6 °F 53.6 °F 72% 30.29 in 10.0 mi NNW 9.2 mph - N/A   Clear
5:36 AM 62.6 °F 51.8 °F 68% 30.29 in 10.0 mi NNW 9.2 mph - N/A   Clear
5:49 AM 64.4 °F 51.8 °F 64% 30.29 in 50.0 mi NNW 12.7 mph 17.3 mph N/A   Scattered Clouds
5:56 AM 62.6 °F 51.8 °F 68% 30.29 in 10.0 mi NNW 13.8 mph - N/A   Clear
6:45 AM 64.4 °F 53.6 °F 68% 30.30 in 50.0 mi NNW 5.8 mph 17.3 mph N/A   Scattered Clouds
7:49 AM 68.0 °F 53.6 °F 60% 30.31 in 50.0 mi NNW 6.9 mph - N/A   Scattered Clouds
8:47 AM 69.8 °F 53.6 °F 56% 30.31 in 50.0 mi North 6.9 mph - N/A   Scattered Clouds
9:48 AM 71.6 °F 55.4 °F 57% 30.30 in 50.0 mi North 8.1 mph - N/A   Scattered Clouds
10:48 AM 73.4 °F 51.8 °F 47% 30.29 in 40.0 mi North 8.1 mph - N/A   Scattered Clouds
11:47 AM 77.0 °F 51.8 °F 41% 30.28 in 40.0 mi Variable 4.6 mph - N/A   Scattered Clouds
12:54 PM 77.0 °F 53.6 °F 44% 30.28 in 40.0 mi NNW 6.9 mph - N/A   Scattered Clouds
1:20 PM 75.2 °F 50.0 °F 41% 30.28 in 40.0 mi NNW 6.9 mph - N/A   Scattered Clouds
1:50 PM 77.0 °F 50.0 °F 39% 30.26 in 40.0 mi NW 8.1 mph - N/A   Mostly Cloudy
2:47 PM 73.4 °F 51.8 °F 47% 30.28 in 40.0 mi West 15.0 mph - N/A   Mostly Cloudy
3:47 PM 78.8 °F 50.0 °F 36% 30.23 in 40.0 mi NNW 5.8 mph - N/A   Mostly Cloudy
4:45 PM 80.6 °F 48.2 °F 32% 30.23 in 30.0 mi Calm Calm - N/A   Mostly Cloudy
5:45 PM 80.6 °F 48.2 °F 32% 30.20 in 30.0 mi West 4.6 mph - N/A   Mostly Cloudy
6:49 PM 82.4 °F 46.4 °F 28% 30.20 in 30.0 mi SSW 4.6 mph - N/A   Mostly Cloudy
7:57 PM 77.0 °F 48.2 °F 36% 30.20 in 30.0 mi Calm Calm - N/A   Mostly Cloudy
8:50 PM 77.0 °F 44.6 °F 32% 30.20 in 25.0 mi Calm Calm - N/A   Mostly Cloudy
9:48 PM 75.2 °F 48.2 °F 38% 30.23 in 25.0 mi Calm Calm - N/A   Mostly Cloudy
11:16 PM 71.6 °F 50.0 °F 46% 30.25 in 10.0 mi North 5.8 mph - N/A   Overcast
11:36 PM 71.6 °F 50.0 °F 46% 30.25 in 10.0 mi North 3.5 mph - N/A   Scattered Clouds
11:55 PM 71.6 °F 46.4 °F 41% 30.25 in 10.0 mi ENE 4.6 mph - N/A   Clear